Date_and_time,latitude,longitude,wind_speed,RelWindDirFrom,WindDirFrom,air_pressure,air_temperature,relative_humidity,Temp,platform_speed_wrt_ground,air_pressure_at_mean_sea_level,platform_orientation
2019-11-26 23:50,50.6304433333333,-96.9807733333333,11.4,12.8,14,990.50,-2.9,86,1.01,0.0,1018.75,38.0
2019-11-27 00:00,50.6304433333333,-96.9807716666667,11.2,12.8,15,990.58,-2.9,86,1.02,0.0,1018.83,311.7
2019-11-27 00:10,50.6304433333333,-96.9807733333333,11.1,12.4,10,990.61,-2.9,86,1.02,0.0,1018.85,311.7
2019-11-27 00:20,50.6304416666667,-96.9807716666667,11.3,12.5,13,990.66,-2.9,86,1.01,0.0,1018.90,311.7
2019-11-27 00:30,50.6304416666667,-96.9807716666667,11.6,13.9,17,990.67,-2.9,85,1.01,0.0,1018.92,311.7
2019-11-27 00:40,50.6304416666667,-96.980785,11.9,13.9,18,990.71,-2.9,85,1.01,0.0,1018.96,311.7
2019-11-27 00:50,50.63044,-96.980775,11.7,13.6,20,990.78,-2.8,85,1.01,0.0,1019.02,311.7
2019-11-27 01:00,50.6304433333333,-96.9807783333333,11.6,13.6,22,990.84,-2.8,85,1.01,0.0,1019.09,270.0
2019-11-27 01:10,50.6304416666667,-96.9807766666667,11.5,13.3,26,990.91,-2.8,86,1.00,0.0,1019.15,270.0
2019-11-27 01:20,50.6304416666667,-96.980775,11.1,13.0,39,991.00,-2.7,84,1.01,0.0,1019.25,270.0
2019-11-27 01:30,50.6304416666667,-96.9807716666667,11.8,14.1,52,991.09,-2.7,81,1.01,0.0,1019.33,270.0
2019-11-27 01:40,50.6304433333333,-96.9807716666667,12.5,14.2,66,991.21,-2.8,82,1.02,0.0,1019.47,270.0
2019-11-27 01:50,50.630445,-96.9807716666667,12.6,14.4,63,991.24,-3.0,81,1.02,0.0,1019.51,270.0
2019-11-27 02:00,50.6304566666667,-96.9807933333333,13.7,16.1,69,991.31,-3.2,80,1.01,0.0,1019.59,302.3
2019-11-27 02:10,50.6304533333333,-96.9807866666667,14.2,15.9,68,991.34,-3.4,79,0.99,0.0,1019.64,302.3
2019-11-27 02:20,50.6304516666667,-96.98078,13.9,15.7,69,991.39,-3.6,79,0.98,0.0,1019.69,302.3
2019-11-27 02:30,50.63045,-96.980775,14.0,15.7,66,991.30,-3.8,79,0.98,0.0,1019.61,302.3
2019-11-27 02:40,50.63045,-96.980775,13.7,15.7,67,991.35,-4.0,79,0.98,0.0,1019.67,302.3
2019-11-27 02:50,50.6304483333333,-96.9807733333333,14.3,16.4,68,991.38,-4.1,78,0.99,0.0,1019.71,302.3
2019-11-27 03:00,50.6304483333333,-96.9807733333333,15.1,16.7,68,991.41,-4.3,77,0.99,0.0,1019.75,360.0
2019-11-27 03:10,50.63046,-96.980795,13.7,16.0,65,991.44,-4.3,78,0.98,0.0,1019.78,360.0
2019-11-27 03:20,50.6304583333333,-96.9807833333333,14.1,16.0,67,991.48,-4.4,78,0.98,0.0,1019.81,360.0
2019-11-27 03:30,50.6304433333333,-96.9807466666667,13.4,15.7,67,991.52,-4.4,78,0.98,0.0,1019.87,360.0
2019-11-27 03:40,50.6304483333333,-96.9807533333333,12.6,14.3,69,991.65,-4.4,78,0.98,0.0,1020.01,360.0
2019-11-27 03:50,50.63045,-96.9807583333333,12.3,13.7,66,991.75,-4.4,78,0.98,0.0,1020.12,360.0
2019-11-27 04:00,50.6304483333333,-96.9807683333333,12.1,14.3,68,991.81,-4.4,78,0.98,0.0,1020.20,66.4
2019-11-27 04:10,50.6304466666667,-96.98076,11.3,13.2,62,991.84,-4.4,78,0.99,0.0,1020.24,66.4
2019-11-27 04:20,50.63045,-96.980775,11.6,13.6,63,991.87,-4.4,77,0.99,0.0,1020.29,66.4
2019-11-27 04:30,50.63045,-96.9807866666667,11.5,13.3,65,991.92,-4.4,77,0.99,0.0,1020.34,66.4
2019-11-27 04:40,50.630455,-96.9807766666667,10.9,13.1,64,991.87,-4.4,78,1.00,0.0,1020.30,66.4
2019-11-27 04:50,50.63045,-96.9807683333333,11.2,12.8,64,991.89,-4.4,78,0.98,0.0,1020.33,66.4
2019-11-27 05:00,50.63045,-96.980765,11.5,13.7,58,991.93,-4.4,78,0.97,0.0,1020.37,90.0
2019-11-27 05:10,50.630475,-96.980815,11.2,13.2,58,992.09,-4.4,78,0.96,0.0,1020.54,90.0
2019-11-27 05:20,50.6304583333333,-96.9807766666667,10.1,12.3,54,992.16,-4.5,77,0.96,0.0,1020.61,90.0
2019-11-27 05:30,50.630445,-96.9807666666667,10.2,11.9,48,992.13,-4.5,79,0.96,0.0,1020.58,90.0
2019-11-27 05:40,50.6304366666667,-96.980765,10.3,12.5,47,992.15,-4.5,79,0.97,0.0,1020.60,90.0
2019-11-27 05:50,50.6304366666667,-96.9807616666667,11.2,14.8,43,992.17,-4.5,78,0.98,0.0,1020.63,90.0
2019-11-27 06:00,50.6304433333333,-96.98077,10.2,14.0,56,992.24,-4.5,77,0.99,0.0,1020.70,167.4
2019-11-27 06:10,50.6304466666667,-96.980765,9.3,12.1,63,992.32,-4.5,78,0.98,0.0,1020.78,167.4
2019-11-27 06:20,50.6304483333333,-96.9807633333333,8.1,10.4,56,992.38,-4.5,79,0.98,0.0,1020.84,167.4
2019-11-27 06:30,50.6304466666667,-96.9807633333333,7.7,9.4,52,992.43,-4.4,79,0.97,0.0,1020.89,167.4
2019-11-27 06:40,50.6304483333333,-96.9807633333333,8.4,9.5,43,992.52,-4.4,79,0.97,0.0,1020.97,167.4
2019-11-27 06:50,50.63045,-96.980765,7.7,9.3,42,992.58,-4.3,79,0.96,0.0,1021.04,167.4
2019-11-27 07:00,50.6304483333333,-96.980765,8.5,9.9,20,992.51,-4.4,80,0.94,0.0,1020.97,0.0
2019-11-27 07:10,50.6304483333333,-96.9807666666667,8.8,10.5,18,992.41,-4.4,79,0.95,0.0,1020.87,0.0
2019-11-27 07:20,50.6304483333333,-96.9807666666667,8.2,10.0,22,992.52,-4.2,79,0.96,0.0,1020.97,0.0
2019-11-27 07:30,50.63045,-96.9807666666667,8.2,9.6,29,992.70,-4.1,77,0.96,0.0,1021.15,0.0
2019-11-27 07:40,50.63045,-96.9807666666667,8.5,9.9,25,992.81,-4.1,77,0.97,0.0,1021.27,0.0
2019-11-27 07:50,50.63045,-96.9807683333333,8.9,10.8,25,992.82,-4.0,77,0.97,0.0,1021.28,0.0
2019-11-27 08:00,50.63045,-96.9807683333333,9.8,11.9,37,992.90,-3.9,76,0.96,0.0,1021.35,0.0
2019-11-27 08:10,50.6304516666667,-96.9807683333333,9.8,11.7,33,993.07,-3.9,75,0.96,0.0,1021.52,0.0
2019-11-27 08:20,50.6304516666667,-96.9807683333333,9.9,11.8,31,993.23,-3.8,75,0.96,0.0,1021.68,0.0
2019-11-27 08:30,50.6304516666667,-96.9807683333333,8.9,11.9,27,993.44,-3.8,75,0.95,0.0,1021.89,0.0
2019-11-27 08:40,50.6304516666667,-96.9807683333333,9.4,11.6,30,993.48,-3.8,75,0.95,0.0,1021.93,0.0
2019-11-27 08:50,50.6304516666667,-96.9807683333333,12.5,14.4,15,993.30,-3.9,79,0.94,0.0,1021.75,0.0
2019-11-27 09:00,50.6304516666667,-96.9807683333333,12.0,14.4,10,993.33,-3.9,79,0.94,0.0,1021.78,360.0
2019-11-27 09:10,50.6304583333333,-96.98078,11.4,14.3,9,993.50,-3.9,80,0.94,0.0,1021.95,360.0
2019-11-27 09:20,50.6304516666667,-96.980755,10.8,13.4,15,993.63,-3.9,79,0.93,0.0,1022.08,360.0
2019-11-27 09:30,50.6304533333333,-96.98076,10.8,13.0,15,993.66,-3.9,76,0.93,0.0,1022.11,360.0
2019-11-27 09:40,50.6304533333333,-96.9807616666667,11.0,13.1,24,993.56,-3.8,77,0.93,0.0,1021.99,360.0
2019-11-27 09:50,50.6304533333333,-96.9807633333333,11.7,16.3,27,993.51,-3.9,76,0.93,0.0,1021.94,360.0
2019-11-27 10:00,50.6304483333333,-96.9807733333333,11.5,16.3,16,993.48,-4.0,75,0.93,0.0,1021.91,270.0
2019-11-27 10:10,50.6304616666667,-96.9807933333333,12.5,16.1,11,993.45,-3.9,78,0.93,0.0,1021.88,270.0
2019-11-27 10:20,50.63046,-96.9807766666667,13.0,17.1,11,993.41,-4.0,76,0.93,0.0,1021.84,270.0
2019-11-27 10:30,50.630455,-96.9807733333333,13.5,18.1,18,993.49,-4.0,76,0.93,0.0,1021.92,270.0
2019-11-27 10:40,50.630455,-96.9807733333333,13.0,16.9,9,993.55,-4.0,77,0.93,0.0,1021.99,270.0
2019-11-27 10:50,50.6304566666667,-96.980775,13.2,16.6,7,993.63,-4.0,77,0.93,0.0,1022.08,270.0
2019-11-27 11:00,50.6304516666667,-96.9807733333333,13.4,17.2,9,993.72,-4.0,77,0.93,0.0,1022.17,270.0
2019-11-27 11:10,50.63045,-96.9807766666667,13.5,17.7,13,993.78,-4.0,76,0.93,0.0,1022.23,270.0
2019-11-27 11:20,50.63045,-96.9807866666667,15.2,18.8,17,993.81,-4.0,76,0.93,0.0,1022.25,270.0
2019-11-27 11:30,50.630445,-96.9807666666667,14.2,17.4,14,993.98,-4.0,77,0.93,0.0,1022.42,270.0
2019-11-27 11:40,50.630445,-96.98077,15.9,18.7,19,994.06,-4.0,76,0.94,0.0,1022.52,270.0
2019-11-27 11:50,50.63045,-96.9807666666667,14.6,18.8,24,994.16,-4.1,75,0.94,0.0,1022.62,270.0
2019-11-27 12:00,50.6304483333333,-96.9807666666667,15.7,19.1,17,994.13,-4.2,71,0.94,0.0,1022.60,360.0
2019-11-27 12:10,50.6304383333333,-96.9807716666667,13.8,16.3,13,994.23,-4.2,70,0.95,0.0,1022.71,360.0
2019-11-27 12:20,50.6304366666667,-96.9807866666667,14.0,16.2,7,994.24,-4.2,69,0.95,0.0,1022.71,360.0
2019-11-27 12:30,50.6304416666667,-96.9807783333333,13.3,15.7,7,994.23,-4.2,69,0.95,0.0,1022.71,360.0
2019-11-27 12:40,50.6304366666667,-96.9807883333333,12.5,16.3,3,994.27,-4.2,70,0.95,0.0,1022.75,360.0
2019-11-27 12:50,50.6304433333333,-96.9807783333333,12.8,15.7,6,994.35,-4.2,71,0.96,0.0,1022.83,360.0
2019-11-27 13:00,50.6304466666667,-96.9807666666667,14.8,17.8,7,994.39,-4.2,71,0.97,0.0,1022.88,90.0
2019-11-27 13:10,50.630445,-96.9807666666667,13.5,18.2,7,994.59,-4.2,72,0.97,0.0,1023.08,90.0
2019-11-27 13:20,50.6304466666667,-96.9807566666667,15.2,18.5,6,994.65,-4.3,71,0.97,0.0,1023.14,90.0
2019-11-27 13:30,50.63045,-96.9807683333333,16.5,19.7,13,994.71,-4.3,73,0.97,0.0,1023.21,90.0
2019-11-27 13:40,50.6304483333333,-96.98077,17.5,19.6,13,994.81,-4.5,73,0.97,0.0,1023.32,90.0
2019-11-27 13:50,50.6304516666667,-96.9807733333333,16.3,18.8,16,994.98,-4.6,75,0.97,0.0,1023.51,90.0
2019-11-27 14:00,50.6304233333333,-96.98077,16.5,19.0,16,995.07,-4.6,76,0.96,0.0,1023.60,166.7
2019-11-27 14:10,50.63044,-96.9807716666667,16.7,19.5,15,995.16,-4.7,76,0.95,0.0,1023.70,166.7
2019-11-27 14:20,50.630445,-96.98078,15.5,17.9,13,995.30,-4.8,78,0.95,0.0,1023.85,166.7
2019-11-27 14:30,50.6304483333333,-96.9807783333333,15.6,18.2,12,995.39,-4.8,78,0.96,0.0,1023.95,166.7
2019-11-27 14:40,50.6304516666667,-96.9807766666667,16.4,18.6,10,995.48,-4.9,79,0.96,0.0,1024.04,166.7
2019-11-27 14:50,50.6304533333333,-96.9807733333333,15.8,19.0,12,995.64,-4.9,79,0.96,0.0,1024.21,166.7
2019-11-27 15:00,50.6304516666667,-96.9807683333333,15.9,18.7,16,995.84,-4.9,79,0.97,0.0,1024.42,360.0
2019-11-27 15:10,50.6304516666667,-96.98077,16.0,18.9,14,996.05,-5.0,79,0.97,0.0,1024.64,360.0
2019-11-27 15:20,50.6304516666667,-96.98077,16.2,19.5,14,996.12,-5.0,79,0.97,0.0,1024.70,360.0
2019-11-27 15:30,50.63045,-96.9807683333333,17.0,19.3,14,996.19,-5.0,79,0.97,0.0,1024.79,360.0
2019-11-27 15:40,50.6304533333333,-96.9807883333333,16.9,19.6,14,996.48,-5.0,81,0.97,0.0,1025.09,360.0
2019-11-27 15:50,50.6304516666667,-96.9807716666667,16.4,18.7,18,996.69,-5.0,82,0.96,0.0,1025.31,360.0
2019-11-27 16:00,50.6304566666667,-96.9808,17.1,19.6,22,996.79,-4.9,82,0.96,0.0,1025.41,283.7
2019-11-27 16:10,50.630445,-96.980775,16.8,19.8,21,996.99,-4.8,82,0.96,0.0,1025.62,283.7
2019-11-27 16:20,50.6304466666667,-96.98077,18.1,20.5,20,997.14,-4.8,81,0.96,0.0,1025.78,283.7
2019-11-27 16:30,50.6304466666667,-96.9807716666667,17.3,20.2,17,997.33,-4.9,82,0.97,0.0,1025.98,283.7
2019-11-27 16:40,50.6304483333333,-96.9807716666667,18.0,20.5,18,997.48,-5.0,82,0.97,0.0,1026.14,283.7
2019-11-27 16:50,50.63043,-96.9807833333333,16.9,19.0,20,997.76,-5.1,83,0.97,0.0,1026.44,283.7
2019-11-27 17:00,50.6304416666667,-96.980775,16.7,19.9,16,998.01,-5.1,82,0.97,0.0,1026.70,320.5
2019-11-27 17:10,50.63048,-96.98079,15.9,18.4,17,998.13,-5.1,82,0.98,0.0,1026.82,320.5
2019-11-27 17:20,50.6304516666667,-96.9807583333333,16.2,19.5,18,998.31,-5.1,81,0.98,0.0,1027.00,320.5
2019-11-27 17:30,50.63045,-96.980765,15.8,18.4,17,998.49,-5.0,80,0.99,0.0,1027.18,320.5
2019-11-27 17:40,50.6304516666667,-96.98077,14.8,17.1,15,998.67,-5.0,79,1.00,0.0,1027.37,320.5
2019-11-27 17:50,50.63045,-96.9807716666667,14.2,16.9,24,998.77,-4.9,77,1.00,0.0,1027.46,320.5
2019-11-27 18:00,50.63044,-96.980795,14.3,16.8,28,998.84,-4.8,74,0.99,0.0,1027.52,243.3
2019-11-27 18:10,50.6304466666667,-96.9807716666667,13.5,15.8,22,999.01,-4.6,73,0.98,0.0,1027.69,243.3
2019-11-27 18:20,50.6304466666667,-96.98077,12.8,15.8,19,999.09,-4.9,76,0.98,0.0,1027.79,243.3
2019-11-27 18:30,50.6304466666667,-96.98077,12.4,14.9,21,999.19,-4.7,74,0.98,0.0,1027.89,243.3
2019-11-27 18:40,50.6304516666667,-96.98075,13.1,16.8,17,999.14,-4.7,75,0.98,0.0,1027.84,243.3
2019-11-27 18:50,50.63046,-96.9807833333333,13.0,15.2,23,999.19,-4.9,75,0.99,0.0,1027.90,243.3
2019-11-27 19:00,50.6304516666667,-96.98078,14.7,17.9,22,999.13,-4.7,71,0.99,0.0,1027.83,90.0
2019-11-27 19:10,50.630455,-96.980775,12.8,16.2,20,999.27,-4.6,73,0.99,0.0,1027.98,90.0
2019-11-27 19:20,50.6304183333333,-96.980775,14.7,18.3,12,999.25,-4.7,72,1.00,0.0,1027.95,90.0
2019-11-27 19:30,50.6304583333333,-96.98075,14.5,18.0,16,999.29,-4.7,70,1.00,0.0,1027.99,90.0
2019-11-27 19:40,50.63044,-96.9807766666667,13.0,15.1,22,999.32,-4.4,68,1.01,0.0,1028.01,90.0
2019-11-27 19:50,50.6304283333333,-96.9807583333333,13.9,16.7,18,999.42,-4.4,67,1.01,0.0,1028.10,90.0
2019-11-27 20:00,50.6304433333333,-96.9807666666667,14.8,17.5,30,999.45,-4.4,68,1.00,0.0,1028.12,90.0
2019-11-27 20:10,50.6304416666667,-96.9807633333333,13.1,16.5,11,999.59,-4.5,69,0.99,0.0,1028.28,90.0
2019-11-27 20:20,50.6304433333333,-96.9807633333333,11.6,14.5,351,999.87,-4.5,70,0.98,0.0,1028.57,90.0
2019-11-27 20:30,50.6304416666667,-96.9807633333333,11.6,15.3,360,1000.03,-4.5,69,0.98,0.0,1028.72,90.0
2019-11-27 20:40,50.6304416666667,-96.980765,12.2,15.8,0,1000.08,-4.4,68,0.98,0.0,1028.79,90.0
2019-11-27 20:50,50.6304433333333,-96.980765,13.0,16.3,6,1000.10,-4.3,69,1.00,0.0,1028.79,90.0
2019-11-27 21:00,50.6304433333333,-96.980765,14.8,18.2,6,1000.18,-4.3,69,1.00,0.0,1028.87,90.0
2019-11-27 21:10,50.630445,-96.9807483333333,15.1,18.7,2,1000.32,-4.3,68,1.00,0.0,1029.01,90.0
2019-11-27 21:20,50.6304383333333,-96.9807633333333,14.0,17.1,3,1000.52,-4.2,69,1.00,0.0,1029.21,90.0
2019-11-27 21:30,50.6304466666667,-96.9807733333333,14.2,17.8,3,1000.68,-4.3,68,1.00,0.0,1029.37,90.0
2019-11-27 21:40,50.6304416666667,-96.98073,13.5,16.9,1,1000.75,-4.3,68,0.99,0.0,1029.44,90.0
2019-11-27 21:50,50.6304416666667,-96.9807566666667,15.1,19.2,2,1000.81,-4.3,67,0.98,0.0,1029.50,90.0
2019-11-27 22:00,50.6304433333333,-96.9807633333333,15.2,18.7,360,1001.00,-4.3,66,0.99,0.0,1029.70,137.2
2019-11-27 22:10,50.630445,-96.9807683333333,14.8,19.0,0,1001.26,-4.3,66,1.01,0.0,1029.97,137.2
2019-11-27 22:20,50.630445,-96.9807683333333,12.3,16.7,359,1001.60,-4.3,67,1.02,0.0,1030.32,137.2
2019-11-27 22:30,50.630445,-96.98077,14.7,18.6,359,1001.70,-4.4,65,1.02,0.0,1030.42,137.2
2019-11-27 22:40,50.630445,-96.9807716666667,13.3,17.6,358,1001.96,-4.4,65,1.03,0.0,1030.68,137.2
2019-11-27 22:50,50.630445,-96.9807733333333,10.8,15.7,359,1002.27,-4.5,67,1.05,0.0,1031.01,137.2
2019-11-27 23:00,50.630445,-96.9807733333333,8.8,12.3,345,1002.53,-4.6,67,1.05,0.0,1031.28,270.0
2019-11-27 23:10,50.630445,-96.980775,10.3,13.4,350,1002.42,-4.6,66,1.05,0.0,1031.17,270.0
2019-11-27 23:20,50.630445,-96.980775,9.5,12.0,346,1002.48,-4.7,66,1.06,0.0,1031.24,270.0
2019-11-27 23:30,50.630445,-96.9807733333333,9.3,12.8,343,1002.59,-4.8,66,1.07,0.0,1031.36,270.0
